www.pogodaiklimat.ru

Погода и климат >> Архив погоды >> Россия >> Краснодарский край >> Белореченск


ПОГОДА в Белореченске

  • Прогноз погоды в Белореченске
  • Монитор погоды в Белореченске

АРХИВ ПОГОДЫ в Белореченске

Время (UTC), дата Ветер
(напр.,м/с)
 
Видим.   Явления Облачность Т
(С)
Тd
(С)
f
(%)
Тe
(С)
Тes
(С)
Комфортность P
(гПа)
Po
(гПа)
Тmin
(С)
Tmax
(С)
R
(мм)
R24
(мм)
S
(см)
21 9.06 В 2 10 км ясно +21.1 +12.5 58 +23 +23 комфорт 1014.3 998.8
00 10.06 В 1 10 км ясно +18.2 +12.0 67 +20 +20 1014.1 998.4
03 10.06 В 2 20 км 3/0
[Ci fib]
+18.8 +13.4 71 +20 +21 1014.5 998.9 +17.3
06 10.06 СВ 2 20 км 4/0
[Ci fib]
+26.0 +14.5 49 +28 +38 жарко 1014.1 998.8
09 10.06 СВ 5
{10}
20 км 6/0
[Ci fib]
+30.6 +10.4 29 +31 +39 жарко 1013.0 997.9
12 10.06 СВ 4 20 км 5/0
[Ci sp]
+32.3 +10.6 26 +32 +40 жарко 1012.1 997.2
15 10.06 СВ 4 20 км 3/0
[Ci fib]
+31.1 +10.8 29 +31 +33 жарко 1011.3 996.3 +32.7
18 10.06 СВ 1 10 км ясно +25.9 +12.9 45 +28 +28 жарко 1011.4 996.2
21 10.06 В 1 10 км 8/0
[Ci fib]
+21.6 +13.2 59 +24 +24 комфорт 1010.7 995.2
00 11.06 В 1 10 км 8/0
[Ci fib]
+18.0 +11.9 68 +19 +19 1011.1 995.5
03 11.06 штиль 0 10 км 9/0
[Ci fib]
+19.5 +13.1 66 +21 +22 комфорт 1011.0 995.5 +16.9
06 11.06 В 2 20 км 8/0
[Ci fib]
+24.8 +14.2 52 +27 +36 жарко 1010.3 995.0
09 11.06 В 2 20 км 8/0
[Ac trans Ci fib]
+29.3 +14.3 40 +31 +43 жарко 1009.8 994.8
12 11.06 СВ 2
{10}
20 км 9/0
[Ac trans Cs]
+29.7 +15.7 43 +33 +40 душно 1009.1 994.1
15 11.06 ЮВ 1
{11}
20 км 8/0
[Ac trans Cs]
+27.3 +18.9 60 +32 +34 очень
душно
1008.0 993.0 +30.2
18 11.06 штиль 0 10 км 8/3 1000 м
[Sc diur, vesp Ac trans]
+23.4 +16.5 65 +28 +28 душно 1008.3 993.1
21 11.06 В 1 10 км 4/0
[Ac trans]
+20.3 +17.4 83 +25 +25 комфорт 1008.0 992.6
00 12.06 ЮВ 1 10 км зарница 9/4 600 м
[Cb calv Ac As]
+20.3 +17.2 82 +25 +25 комфорт 1007.0 991.6
03 12.06 В 1 10 км {ливн. осадки} 6/3 1000 м
[Sc diur, vesp Ac trans Ci fib]
+20.3 +16.5 79 +24 +25 комфорт 1007.8 992.4 +19.1 0.0
06 12.06 штиль 0 10 км {ливн. осадки} 10/4 1000 м
[Sc Ac As Cs]
+24.4 +16.8 63 +28 +32 душно 1007.7 992.5
09 12.06 СВ 2 20 км {ливн. осадки} 9/4 1000 м
[Sc diur, vesp Ac trans Cs]
+28.1 +18.2 55 +33 +40 очень
душно
1008.1 993.0
12 12.06 СВ 3 20 км {ливн. осадки} 10/6 1000 м
[Sc diur, vesp Ac As]
+28.2 +18.3 55 +33 +34 очень
душно
1007.9 992.9
15 12.06 СВ 1 20 км 9/3 1000 м
[Sc diur, vesp Ac As Ci]
+28.3 +18.3 55 +33 +34 очень
душно
1007.1 992.1 +28.9 0.0
18 12.06 В 2 10 км 6/3 1000 м
[Sc diur, vesp Ac lent Ci fib]
+24.4 +18.5 70 +29 +29 душно 1008.2 993.0
21 12.06 В 1 10 км 4/0
[Ci fib]
+19.6 +15.6 78 +23 +23 комфорт 1008.1 992.6
00 13.06 штиль 0 10 км 10/0
[Ac As Cs]
+18.7 +16.4 86 +20 +20 1009.0 993.5
03 13.06 штиль 0 10 км 10/3 1000 м
[Sc Ac As Cs]
+19.1 +17.7 92 +21 +21 комфорт 1008.9 993.4 +18.2
06 13.06 З 1 20 км 10/0
[Ac cast Cs]
+24.3 +20.4 79 +30 +38 очень
душно
1009.8 994.6
09 13.06 З 3 20 км 10/8 600 м
[Cb cap Cs]
+27.3 +19.3 62 +33 +35 очень
душно
1009.8 994.7
12 13.06 Ю 1 10 км гроза, ливневой дождь 10/10 600 м
[Cb cap]
+20.2 +16.9 81 +24 +24 комфорт 1011.2 995.8
15 13.06 ЮВ 2 20 км {гроза, ливн. осадки} 9/4 1000 м
[Sc diur, vesp Ac cast Ci sp]
+21.8 +19.3 86 +27 +28 душно 1011.3 995.9 +28.4 2
18 13.06 ЮВ 1 10 км {гроза, ливн. осадки} 8/3 1000 м
[Sc diur, vesp Ac As]
+20.4 +18.6 89 +25 +25 комфорт 1011.5 996.1
21 13.06 В 1 10 км 9/8 600 м
[Sc diur, vesp Ac As]
+20.2 +17.9 87 +25 +25 комфорт 1011.4 995.9
00 14.06 ЮВ 1 10 км зарница 10/10 600 м
[Cb cap]
+19.5 +17.1 86 +23 +23 комфорт 1012.1 996.6
03 14.06 СВ 1 10 км 8/4 1000 м
[Sc diur, vesp Ac cast]
+18.6 +17.0 90 +21 +21 комфорт 1012.6 997.0 +17.9
06 14.06 СВ 3 20 км 9/0
[Ci sp]
+24.4 +16.6 62 +28 +35 душно 1012.7 997.4
09 14.06 СВ 4 20 км 6/0
[Ci fib]
+28.1 +15.0 45 +31 +42 душно 1013.3 998.1
12 14.06 С 4
{10}
20 км 8/0
[Ci fib]
+30.6 +14.3 37 +32 +40 жарко 1012.2 997.2
15 14.06 СВ 5
{11}
20 км 8/0
[Ac As Ci fib]
+30.3 +11.9 32 +31 +32 жарко 1011.4 996.4 +31.2
18 14.06 СВ 5
{10}
10 км 10/0
[Cs]
+27.0 +10.8 36 +28 +28 жарко 1011.4 996.2
21 14.06 СВ 1 10 км 4/0
[Ac lent]
+21.7 +12.9 57 +24 +24 комфорт 1012.1 996.7
00 15.06 штиль 0 10 км 4/0
[Ci fib]
+18.5 +14.8 79 +19 +19 1011.9 996.3
03 15.06 ЮВ 1 10 км 4/0
[Ac cast Ci fib]
+19.3 +16.2 82 +22 +23 комфорт 1012.1 996.5 +17.4
06 15.06 СВ 3 20 км 1/0
[Ac lent]
+25.8 +16.0 55 +29 +37 душно 1011.5 996.3
09 15.06 СВ 3 20 км 6/1 1000 м
[Cu med, cong Ci fib]
+30.3 +14.9 39 +32 +45 жарко 1010.5 995.5
12 15.06 СВ 3 20 км 5/3 1000 м
[Cu med, cong Ci fib]
+32.5 +12.1 29 +33 +40 жарко 1009.3 994.4
15 15.06 СВ 3 20 км 8/0
[Ac trans Ci sp]
+31.6 +11.7 30 +32 +33 жарко 1008.6 993.7 +33.1
18 15.06 В 1 10 км 8/0
[Ac lent Ci fib]
+26.2 +15.3 51 +29 +29 жарко 1008.7 993.6
21 15.06 В 1 10 км 8/0
[Ci fib]
+22.4 +17.9 76 +27 +27 душно 1009.2 993.9
00 16.06 Ю 1 10 км 3/0
[Ac trans]
+18.8 +16.1 84 +21 +21 комфорт 1009.0 993.5
03 16.06 штиль 0 10 км 3/0
[Ac trans]
+19.6 +16.4 82 +22 +23 комфорт 1009.1 993.6 +17.9
06 16.06 ЮЗ 1 20 км 4/3 1000 м
[Sc Ac trans Ci fib]
+25.6 +17.1 59 +29 +38 душно 1009.0 993.8
09 16.06 штиль 0 20 км ясно +30.6 +16.8 44 +34 +60 опасность
солнечного
удара
1008.5 993.6
12 16.06 ЮЗ 2 20 км 8/6 1000 м
[Sc diur, vesp Cs]
+32.3 +14.9 35 +34 +39 душно 1007.7 992.8
15 16.06 ЮВ 5
{10}
10 км гроза без осадков {ливн. осадки} 10/6 600 м
[Cb cap Ac As Cs]
+25.4 +13.1 46 +27 +28 жарко 1008.0 992.8 +32.9 0.0

 

Местоположение метеостанции Белореченск (Краснодарский край, Россия): широта 44.75 долгота 39.90 высота над уровнем моря 139 м.

В архиве по умолчанию представлена погода в Белореченске за последнюю неделю. Архивные данные за месяц целиком и за предыдущие месяцы, начиная с января 2011 года, Вы можете получить, выбрав интересующий диапазон дат из раскрывающегося списка и нажав кнопку "Ввод!".


*Определитесь, кто Вы:
робот инопланетянин человек

Внимание! Время в таблицах - всемирное. Для получения местного времени необходимо прибавить поправку, которая равна 3 ч.

Смотрите также архив погоды в соседних городах и на ближайших метеорологических станциях:

Погода в Майкопе (Адыгея, Россия) (20 км)
Погода в Шунтуке (Адыгея, Россия) (36 км)
Погода в Дондуковской (Адыгея, Россия) (38 км)
Погода в Усть-Лабинске (Краснодарский край, Россия) (55 км)
Погода в Горячем Ключе (Краснодарский край, Россия) (65 км)
Погода в Лабинске (Краснодарский край, Россия) (68 км)
Погода в Даховской (Адыгея, Россия) (68 км)
Погода в Горном (Краснодарский край, Россия) (72 км)
Погода в Краснодаре (Краснодарский край, Россия) (76 км)
Погода в Гузерипле (Адыгея, Россия) (85 км)

Пояснения к столбцам:

Ветер - указаны скорость ветра в м/с - средняя за 10 мин, порывы в срок и между сроками (в фигурных скобках) и направление, откуда дует ветер: С - северный, СВ - северо-восточный, В - восточный, ЮВ - юго-восточный, Ю - южный, ЮЗ - юго-западный, З - западный, СЗ - северо-западный.
Видимость - горизонтальная дальность видимости в метрах или километрах. При видимости от 1 до 10 км при отсутствии осадков обычно наблюдается дымка, при ухудшении видимости до 1 км и менее - туман. В сухую погоду видимость может ухудшаться дымом, пылью или мглою.
Явления - указаны атмосферные явления, наблюдавшиеся в срок или в последний час перед сроком; фигурными скобками обозначены явления, наблюдавшиеся между сроками (за 1-3 часа до срока); квадратными скобками обозначены град или гололедные отложения с указанием их диаметра в мм.
Облачность - указаны через наклонную черту общая и нижняя облачность в баллах и высота нижней границы облаков в метрах; квадратными скобками обозначены формы облаков: Ci - перистые, Cs - перисто-слоистые, Cc - перисто-кучевые, Ac - высококучевые, As - высокослоистые, Sc - слоисто-кучевые, Ns - слоисто-дождевые, Cu - кучевые, Cb - кучево-дождевые. Подробнее классификацию облаков см. в Атласе облаков (PDF).
T - Температура воздуха - температура, измеренная на высоте 2 м над землей.
Td - Температура точки росы - температура, при понижении до которой содержащийся в воздухе водяной пар достигнет насыщения.
f - Относительная влажность воздуха - влажноcть воздуха, измеренная на высоте 2 м над землей.
Te - Эффективная температура - температура, которую ощущает одетый по сезону человек в тени. Характеристика душности погоды. При расчете учитывается влияние влажности воздуха и скорости ветра на теплоощущения человека.
Tes - Эффективная температура на солнце - температура, которую ощущает человек, с поправкой на солнечный нагрев. Характеристика знойности погоды. Зависит от высоты солнца над горизонтом, облачности и скорости ветра. Ночью, в пасмурную погоду, а также при ветре 12 м/с и более поправка равна нулю.
P - Атмосферное давление - приведенное к уровню моря атмосферное давление.
Po - Атмосферное давление - измеренное на уровне метеостанции атмосферное давление.
Tmin - Минимальная температура - минимум температуры воздуха на высоте 2 м над землей.
Tmax - Максимальная температура - максимум температуры воздуха на высоте 2 м над землей.
R - Количество осадков - Количество выпавших осадков за период времени, мм. При наведении курсора мыши на число - период времени, за который выпало указанное количество осадков.
R24 - Количество осадков - Количество выпавших осадков за 24 часа, мм.
S - Снежный покров - Высота снежного покрова, см. При наведении курсора мыши на число - состояние снежного покрова и степень покрытия местности в баллах.